Latest Coastal Weather Observations for Spring Bay

IDT60701

Issued at 3:03 pm EDT Friday 24 February 2017 (issued every 10 minutes, with the page automatically refreshed every 10 minutes)

About coastal observations | Map of coastal stations | Coastal observations for TAS | Marine services | Other Formats
Station Details ID: 092133 Name: SPRING BAY NTC AWS Lat: -42.55 Lon: 147.93 Height: 0.0 m
Data from the previous 72 hours. | See also: Recent months for locations in Tasmania
Date/Time
EDT
Temp
°C
Wind Pressure Rain since
9am
mm
Weather Cloud Vis
km
Sea
Height
m
Swell
Dir  Spd
kts
Gust
kts
hPa Trend Height
m
Period
s
Dir
24/03:00pm 19.0 - - - 1019.5 - - - - - - - - -
24/02:30pm 18.9 - - - 1019.6 - - - - - - - - -
24/02:00pm 17.5 - - - 1019.5 - - - - - - - - -
24/01:30pm 18.2 - - - 1019.7 - - - - - - - - -
24/01:00pm 17.4 - - - 1019.9 - - - - - - - - -
24/12:30pm 17.9 - - - 1020.1 - - - - - - - - -
24/12:00pm 17.5 - - - 1020.4 - - - - - - - - -
24/11:30am 17.2 - - - 1020.4 - - - - - - - - -
24/11:00am 16.5 - - - 1020.7 - - - - - - - - -
24/10:30am 16.4 - - - 1020.6 - - - - - - - - -
24/10:00am 16.1 - - - 1020.6 - - - - - - - - -
24/09:30am 16.0 - - - 1020.4 - - - - - - - - -
24/09:00am 15.9 - - - 1020.3 - - - - - - - - -
24/08:30am 15.7 - - - 1020.0 - - - - - - - - -
24/08:00am 15.1 - - - 1019.9 - - - - - - - - -
24/07:30am 14.6 - - - 1019.8 - - - - - - - - -
24/07:00am 14.5 - - - 1019.6 - - - - - - - - -
24/06:30am 14.6 - - - 1019.3 - - - - - - - - -
24/06:00am 14.1 - - - 1019.0 - - - - - - - - -
24/05:30am 14.5 - - - 1019.0 - - - - - - - - -
24/05:00am 15.3 - - - 1018.8 - - - - - - - - -
24/04:30am 15.6 - - - 1018.8 - - - - - - - - -
24/04:00am 15.8 - - - 1018.8 - - - - - - - - -
24/03:30am 15.7 - - - 1018.7 - - - - - - - - -
24/03:00am 15.5 - - - 1018.7 - - - - - - - - -
24/02:30am 15.4 - - - 1018.7 - - - - - - - - -
24/02:00am 15.5 - - - 1019.0 - - - - - - - - -
24/01:30am 15.3 - - - 1019.3 - - - - - - - - -
24/01:00am 15.5 - - - 1019.2 - - - - - - - - -
24/12:30am 16.4 - - - 1019.1 - - - - - - - - -
24/12:00am 16.5 - - - 1018.9 - - - - - - - - -
 
Date/Time
EDT
Temp
°C
Wind Pressure Rain since
9am
mm
Weather Cloud Vis
km
Sea
Height
m
Swell
Dir  Spd
kts
Gust
kts
hPa Trend Height
m
Period
s
Dir
23/11:30pm 16.7 - - - 1018.5 - - - - - - - - -
23/11:00pm 16.8 - - - 1018.4 - - - - - - - - -
23/10:30pm 17.6 - - - 1018.2 - - - - - - - - -
23/10:00pm 17.7 - - - 1017.6 - - - - - - - - -
23/09:30pm 18.2 - - - 1017.4 - - - - - - - - -
23/09:00pm 18.3 - - - 1016.7 - - - - - - - - -
23/08:30pm 18.3 - - - 1016.0 - - - - - - - - -
23/08:00pm 18.4 - - - 1015.4 - - - - - - - - -
23/07:30pm 19.5 - - - 1014.7 - - - - - - - - -
23/07:00pm 20.4 - - - 1013.9 - - - - - - - - -
23/06:30pm 20.9 - - - 1013.2 - - - - - - - - -
23/06:00pm 21.1 - - - 1012.7 - - - - - - - - -
23/05:30pm 21.3 - - - 1012.2 - - - - - - - - -
23/05:00pm 21.1 - - - 1011.5 - - - - - - - - -
23/04:30pm 23.1 - - - 1010.8 - - - - - - - - -
23/04:00pm 24.3 - - - 1010.4 - - - - - - - - -
23/03:30pm 24.3 - - - 1010.4 - - - - - - - - -
23/03:00pm 24.5 - - - 1010.1 - - - - - - - - -
23/02:30pm 24.2 - - - 1010.1 - - - - - - - - -
23/02:00pm 24.4 - - - 1010.0 - - - - - - - - -
23/01:30pm 24.5 - - - 1009.7 - - - - - - - - -
23/01:00pm 24.4 - - - 1009.4 - - - - - - - - -
23/12:30pm 23.5 - - - 1009.3 - - - - - - - - -
23/12:00pm 23.0 - - - 1009.4 - - - - - - - - -
23/11:30am 22.8 - - - 1009.3 - - - - - - - - -
23/11:00am 22.1 - - - 1009.4 - - - - - - - - -
23/10:30am 21.6 - - - 1009.3 - - - - - - - - -
23/10:00am 21.2 - - - 1009.3 - - - - - - - - -
23/09:30am 19.7 - - - 1009.1 - - - - - - - - -
23/09:00am 19.4 - - - 1008.9 - - - - - - - - -
23/08:30am 19.4 - - - 1008.4 - - - - - - - - -
23/08:00am 19.5 - - - 1008.0 - - - - - - - - -
23/07:30am 19.3 - - - 1007.7 - - - - - - - - -
23/07:00am 19.8 - - - 1007.1 - - - - - - - - -
23/06:30am 20.4 - - - 1006.5 - - - - - - - - -
23/06:00am 18.6 - - - 1006.0 - - - - - - - - -
23/05:30am 18.1 - - - 1005.3 - - - - - - - - -
23/05:00am 17.2 - - - 1005.9 - - - - - - - - -
23/04:30am 16.9 - - - 1006.3 - - - - - - - - -
23/04:00am 16.3 - - - 1006.2 - - - - - - - - -
23/03:30am 16.4 - - - 1006.0 - - - - - - - - -
23/03:00am 17.2 - - - 1006.5 - - - - - - - - -
23/02:30am 16.8 - - - 1007.2 - - - - - - - - -
23/02:00am 17.4 - - - 1007.4 - - - - - - - - -
23/01:30am 17.7 - - - 1008.2 - - - - - - - - -
23/01:00am 17.2 - - - 1008.5 - - - - - - - - -
23/12:30am 17.3 - - - 1008.9 - - - - - - - - -
23/12:00am 17.7 - - - 1009.4 - - - - - - - - -
 
Date/Time
EDT
Temp
°C
Wind Pressure Rain since
9am
mm
Weather Cloud Vis
km
Sea
Height
m
Swell
Dir  Spd
kts
Gust
kts
hPa Trend Height
m
Period
s
Dir
22/11:30pm 18.4 - - - 1010.0 - - - - - - - - -
22/11:00pm 17.1 - - - 1010.7 - - - - - - - - -
22/10:30pm 18.2 - - - 1010.6 - - - - - - - - -
22/10:00pm 19.0 - - - 1010.7 - - - - - - - - -
22/09:30pm 19.4 - - - 1011.0 - - - - - - - - -
22/09:00pm 19.9 - - - 1010.7 - - - - - - - - -
22/08:30pm 19.8 - - - 1010.7 - - - - - - - - -
22/08:00pm 20.3 - - - 1010.2 - - - - - - - - -
22/07:30pm 20.6 - - - 1010.0 - - - - - - - - -
22/07:00pm 20.9 - - - 1009.9 - - - - - - - - -
22/06:30pm 20.9 - - - 1010.3 - - - - - - - - -
22/06:00pm 21.4 - - - 1010.3 - - - - - - - - -
22/05:30pm 20.8 - - - 1010.7 - - - - - - - - -
22/05:00pm 20.9 - - - 1011.3 - - - - - - - - -
22/04:30pm 21.5 - - - 1011.6 - - - - - - - - -
22/04:00pm 21.1 - - - 1012.1 - - - - - - - - -
22/03:30pm 22.4 - - - 1012.3 - - - - - - - - -
22/03:00pm 21.4 - - - 1012.9 - - - - - - - - -
22/02:30pm 20.9 - - - 1013.3 - - - - - - - - -
22/02:00pm 21.4 - - - 1013.7 - - - - - - - - -
22/01:30pm 21.3 - - - 1013.9 - - - - - - - - -
22/01:00pm 20.7 - - - 1014.1 - - - - - - - - -
22/12:30pm 20.6 - - - 1014.4 - - - - - - - - -
22/12:00pm 19.2 - - - 1015.2 - - - - - - - - -
22/11:30am 19.8 - - - 1015.6 - - - - - - - - -
22/11:00am 18.5 - - - 1016.2 - - - - - - - - -
22/10:30am 17.5 - - - 1016.5 - - - - - - - - -
22/10:00am 16.8 - - - 1016.9 - - - - - - - - -
22/09:30am 16.2 - - - 1016.9 - - - - - - - - -
22/09:00am 15.9 - - - 1017.1 - - - - - - - - -
22/08:30am 15.4 - - - 1017.2 - - - - - - - - -
22/08:00am 13.5 - - - 1017.2 - - - - - - - - -
22/07:30am 12.8 - - - 1016.9 - - - - - - - - -
22/07:00am 12.9 - - - 1016.7 - - - - - - - - -
22/06:30am 12.8 - - - 1016.8 - - - - - - - - -
22/06:00am 12.9 - - - 1016.7 - - - - - - - - -
22/05:30am 13.3 - - - 1016.9 - - - - - - - - -
22/05:00am 13.7 - - - 1017.2 - - - - - - - - -
22/04:30am 13.7 - - - 1017.5 - - - - - - - - -
22/04:00am 14.6 - - - 1017.9 - - - - - - - - -
22/03:30am 14.9 - - - 1018.0 - - - - - - - - -
22/03:00am 15.5 - - - 1018.2 - - - - - - - - -
22/02:30am 16.1 - - - 1018.2 - - - - - - - - -

Other Formats:

Comma delimited format used in spreadsheet applications
http://www.bom.gov.au/fwo/IDT60701/IDT60701.95987.axf

JavaScript Object Notation format (JSON) in row-major order
http://www.bom.gov.au/fwo/IDT60701/IDT60701.95987.json